Vertical_Velocity
-0 -2 0 -0 3 2 1 -1 -0 1 1 -0 0 -0 0 -0 1 0 -0 -1 1 -1 -0 2 -1 2 0 0 -1 0 0 -0 1 0 1 -1 0 0 -0 -0 -1 -1 -0
-3 -1 -2 -0 -3 1 2 1 -1 -0 -0 -1 -0 -0 1 -0 -2 -2 -0 -1 -1 0 0 1 0 1 1 -0 0 -0 1 -0 -1 -0 -1 0 -0 1 0 1 -1 -1 -0
-1 -1 0 2 0 4 3 2 1 -0 1 -1 -2 -1 -1 -0 0 0 -1 -2 -2 -2 -1 0 -0 -0 -1 -1 -1 -2 -2 0 0 2 -3 -1 -0 4 -1 2 2 1 1
-0 -1 1 2 -0 -0 -0 -1 3 0 -0 -1 -2 -0 -0 -0 -1 -1 -2 -1 -1 -1 0 -1 -1 1 0 0 -1 -2 -0 -0 0 -3 1 2 -1 1 -2 -1 1 -1 0
1 -0 -1 2 2 -0 -1 2 -0 1 -0 0 2 -1 -2 -1 1 2 1 0 -0 -1 -1 -0 0 -0 0 -0 -1 2 -1 -2 -1 1 -2 5 1 2 -0 -1 -2 0 0
1 0 1 1 3 2 -0 0 5 1 1 0 0 1 -0 0 0 0 0 1 1 1 0 -0 -1 -1 -2 -1 -0 -1 -0 0 -0 1 2 -0 2 7 4 2 3 3 1
-2 -1 -0 1 -1 2 3 -1 -0 -0 -0 -0 0 2 1 0 0 0 1 -0 -0 -1 -1 -1 1 1 1 0 -0 -1 -0 1 2 -1 -1 -0 -3 -2 -3 -2 -1 -1 -2
-2 -3 -3 -2 -1 2 2 -1 -0 2 -0 1 0 0 -0 1 1 0 0 -0 1 1 1 1 0 -1 -1 -1 -2 -1 -0 -3 -1 -3 2 -4 1 -2 -1 -1 -0 0 -1
1 0 1 1 -0 -1 1 1 -1 1 0 1 2 1 0 1 1 1 0 -0 -0 -2 -1 -1 -0 -2 -1 -1 -2 -2 -2 -1 2 -2 7 5 7 -1 0 0 -0 0 -1
-1 1 -0 -2 -0 1 2 3 2 2 2 1 1 1 2 1 1 0 1 1 1 0 -0 -0 -0 -1 -1 -2 -2 -2 -1 -3 -0 -1 -1 1 3 0 2 -1 -1 0 -1
-1 -1 1 1 0 -0 -0 -1 1 1 2 1 1 -0 1 1 2 0 -0 0 0 -0 0 -1 -1 -1 -1 -2 -2 -1 -2 0 0 -1 -0 -1 -1 -1 -2 -1 -1 -1 -2
-1 -1 -0 -0 0 1 1 1 1 0 2 1 1 1 2 1 -1 0 0 0 -0 0 0 0 -0 0 -0 1 -1 -0 1 -1 -0 -0 -2 -1 -1 -2 -1 -1 -1 -1 -2
1 0 0 1 2 2 2 0 -0 -0 -0 0 -0 -1 -1 -1 -1 1 0 1 2 -0 2 1 1 1 1 1 -1 -2 -2 -1 -1 -0 -2 -1 -0 -0 -1 -1 -1 0 -0
-1 1 1 -0 -0 1 -0 1 1 1 -0 -1 -1 1 1 3 2 1 1 -0 0 -0 -1 -1 -0 -1 -2 -1 -1 0 0 -0 -2 -3 -5 -2 -1 -1 -2 -1 -1 -1 -1
-2 -2 -1 -1 0 -0 0 1 0 -0 1 -0 0 0 -0 -1 -2 -2 -2 -1 -1 -1 -1 1 0 -1 -0 -1 -1 -1 -1 -0 -0 -0 1 0 0 0 1 0 -0 -0 -1
2 1 -1 -0 1 -0 -0 -1 1 1 -1 0 -1 -2 -1 -1 -2 -0 -1 -1 -2 -2 -2 -2 -1 -1 -1 -2 -2 -1 -0 -0 0 1 1 -1 -1 -2 -2 -2 -1 -2 -2
1 1 1 -0 -2 -1 1 0 -0 -1 -0 -1 -1 -1 -1 -1 -1 -1 -0 0 0 -0 -1 -2 -2 -1 -1 -1 -0 -0 0 0 1 0 -0 -0 -2 -1 -1 -2 -2 -1 -1
0 -1 -2 -1 -0 -1 -2 -2 -1 -1 -0 1 0 0 1 1 1 1 0 0 -0 -0 0 0 0 -0 -1 -1 -1 -1 -1 -1 -1 -0 -0 -0 -0 0 -1 0 1 1 0
1 -0 -1 0 0 0 -0 -1 -0 0 0 0 0 1 0 0 0 0 1 0 -0 -0 0 1 0 1 1 1 0 -0 -1 -1 -1 -0 -0 -0 -0 1 0 -1 -0 -1 -1
2 1 1 1 1 1 1 0 -0 -1 -2 -1 -1 -1 -1 -1 -1 -1 -1 -0 -0 -1 -1 -1 -1 -2 -1 -1 -1 -1 -1 -2 -2 -1 -0 -1 0 -0 -0 -0 -1 -1 -1
0 1 1 -0 -1 -1 -1 -1 0 1 1 -0 -1 -1 -1 -1 -0 1 1 0 1 1 1 0 -0 -0 -1 -1 -3 -0 -3 -1 -1 -1 -0 -0 -1 -0 -0 0 0 0 -1
5 3 2 2 2 2 2 3 1 1 1 1 1 3 2 3 2 1 -0 -0 -1 -0 -0 0 0 0 -0 1 0 -1 -1 -1 -3 0 -1 -0 1 -1 -0 0 -0 -1 -1
2 5 4 2 1 2 2 -1 1 0 2 2 2 1 -1 -1 -1 0 1 1 -0 -1 -1 -1 -2 -2 -1 -5 0 -1 -0 2 -5 -5 -1 -1 0 -0 1 -0 1 1 0
-0 1 0 2 5 4 2 3 3 7 4 0 1 1 1 -1 -3 -1 -1 -1 -0 -0 1 0 -0 0 0 2 -2 1 2 3 -1 -7 -0 -4 -0 -1 -0 -2 -1 -2 -0
3 2 2 2 1 1 3 4 4 3 1 1 0 1 -1 1 -0 -1 -1 0 -0 -0 1 2 2 2 3 3 3 5 -0 -1 1 -2 -9 -1 -5 -3 1 -1 -0 -1 -3
-0 1 3 3 0 -1 -0 1 3 2 2 -0 -1 -0 0 1 2 1 1 0 1 1 1 0 1 1 1 0 -2 -1 -0 -0 1 1 0 -6 -1 -3 2 -0 -2 0 2
Height
1551 1552 1553 1554 1556 1557 1558 1558 1558 1558 1558 1558 1559 1559 1560 1560 1559 1559 1559 1559 1558 1558 1559 1558 1558 1557 1557 1556 1556 1555 1555 1554 1554 1554 1554 1554 1554 1553 1553 1553 1552 1551 1550
1551 1553 1554 1556 1557 1558 1559 1559 1559 1560 1560 1560 1560 1561 1561 1562 1562 1561 1561 1560 1560 1560 1560 1560 1560 1560 1559 1558 1558 1557 1556 1556 1557 1556 1556 1556 1556 1555 1554 1554 1554 1553 1552
1551 1554 1555 1557 1558 1559 1560 1560 1561 1561 1562 1562 1562 1563 1563 1563 1563 1563 1563 1562 1562 1562 1562 1562 1562 1562 1561 1561 1560 1559 1559 1558 1558 1559 1559 1559 1558 1557 1557 1556 1555 1555 1554
1552 1554 1557 1557 1559 1560 1561 1562 1563 1563 1563 1563 1564 1564 1565 1565 1565 1565 1564 1565 1565 1565 1565 1565 1565 1564 1564 1563 1562 1562 1561 1560 1560 1561 1563 1561 1561 1559 1559 1558 1557 1556 1555
1553 1555 1556 1558 1560 1561 1563 1564 1564 1565 1565 1565 1566 1566 1566 1567 1567 1567 1567 1567 1567 1567 1567 1567 1566 1566 1566 1565 1565 1564 1563 1563 1562 1564 1564 1564 1563 1561 1560 1559 1559 1558 1557
1554 1556 1557 1559 1560 1562 1563 1564 1565 1566 1566 1567 1567 1568 1568 1569 1569 1569 1569 1568 1569 1569 1569 1568 1568 1568 1568 1567 1567 1566 1565 1565 1565 1565 1566 1564 1563 1562 1562 1561 1560 1559 1559
1554 1557 1558 1560 1561 1563 1564 1565 1566 1567 1568 1568 1569 1569 1569 1569 1570 1570 1570 1570 1570 1570 1570 1570 1570 1570 1569 1568 1568 1567 1567 1566 1567 1567 1567 1566 1564 1563 1562 1562 1561 1560 1559
1555 1557 1559 1560 1562 1564 1565 1566 1567 1568 1569 1569 1570 1570 1570 1571 1571 1571 1571 1571 1571 1571 1571 1571 1571 1570 1570 1569 1569 1569 1568 1568 1569 1570 1568 1567 1566 1565 1564 1563 1562 1561 1560
1555 1557 1559 1560 1562 1564 1565 1567 1568 1569 1570 1570 1571 1571 1571 1572 1572 1572 1572 1572 1572 1572 1572 1572 1571 1571 1571 1570 1570 1570 1570 1570 1571 1571 1570 1569 1567 1566 1565 1564 1563 1562 1561
1555 1557 1559 1561 1562 1564 1565 1567 1568 1569 1570 1571 1571 1572 1572 1572 1573 1573 1573 1573 1573 1573 1573 1572 1572 1572 1572 1572 1571 1571 1571 1571 1572 1572 1570 1568 1567 1566 1565 1564 1563 1562 1561
1555 1557 1559 1560 1562 1564 1566 1567 1568 1569 1570 1571 1572 1572 1573 1573 1573 1573 1573 1573 1573 1573 1573 1573 1573 1572 1572 1572 1572 1571 1571 1572 1572 1571 1570 1568 1567 1566 1565 1564 1563 1562 1561
1553 1555 1558 1560 1562 1564 1565 1567 1569 1569 1571 1571 1572 1572 1573 1573 1573 1574 1573 1573 1573 1573 1573 1573 1573 1573 1573 1572 1572 1572 1572 1571 1571 1570 1568 1567 1566 1565 1564 1563 1562 1562 1561
1552 1554 1556 1559 1561 1563 1565 1567 1568 1569 1570 1571 1572 1572 1573 1573 1573 1574 1574 1574 1574 1573 1574 1573 1573 1573 1573 1573 1572 1571 1571 1570 1570 1569 1568 1567 1566 1565 1564 1563 1562 1560 1559
1551 1553 1556 1558 1560 1563 1564 1566 1567 1569 1570 1571 1571 1572 1572 1573 1573 1574 1575 1574 1574 1574 1573 1573 1573 1572 1572 1572 1571 1571 1570 1569 1569 1568 1566 1566 1565 1564 1563 1562 1560 1559 1558
1549 1552 1554 1557 1559 1561 1563 1565 1566 1568 1569 1570 1571 1571 1572 1572 1573 1573 1573 1573 1573 1573 1573 1573 1572 1571 1571 1570 1570 1569 1569 1568 1567 1566 1565 1564 1563 1562 1561 1560 1559 1558 1557
1547 1550 1552 1555 1557 1559 1562 1564 1565 1566 1568 1569 1570 1570 1571 1572 1572 1573 1573 1573 1573 1573 1572 1572 1571 1570 1570 1569 1568 1567 1567 1566 1565 1564 1563 1562 1561 1560 1559 1559 1558 1557 1555
1546 1549 1551 1553 1556 1558 1560 1562 1564 1565 1566 1567 1568 1569 1570 1570 1571 1572 1572 1572 1571 1571 1571 1571 1570 1569 1568 1567 1566 1565 1564 1563 1563 1562 1561 1561 1559 1558 1558 1557 1556 1555 1553
1544 1546 1549 1551 1553 1555 1558 1560 1562 1563 1565 1566 1567 1568 1569 1569 1570 1570 1570 1570 1570 1570 1570 1569 1569 1568 1567 1566 1565 1564 1562 1562 1561 1560 1560 1559 1558 1557 1555 1555 1554 1553 1552
1541 1543 1546 1548 1550 1553 1555 1558 1560 1562 1563 1564 1566 1567 1568 1568 1569 1569 1569 1569 1569 1568 1568 1567 1567 1566 1565 1564 1563 1561 1560 1559 1558 1558 1557 1556 1555 1555 1554 1552 1552 1551 1550
1537 1540 1543 1546 1548 1551 1553 1555 1557 1559 1560 1562 1564 1565 1566 1567 1568 1568 1568 1567 1567 1567 1566 1566 1565 1565 1564 1562 1561 1560 1558 1556 1555 1554 1554 1553 1552 1552 1551 1550 1549 1548 1547
1532 1536 1539 1542 1545 1548 1550 1552 1555 1557 1558 1560 1561 1563 1564 1565 1565 1566 1566 1565 1565 1565 1564 1564 1563 1563 1562 1560 1559 1557 1555 1553 1552 1551 1550 1550 1549 1548 1548 1547 1547 1546 1544
1527 1531 1535 1539 1542 1546 1548 1551 1554 1556 1557 1558 1559 1560 1561 1562 1563 1564 1564 1564 1563 1563 1562 1562 1561 1560 1560 1559 1559 1556 1554 1553 1549 1548 1547 1546 1546 1545 1545 1544 1543 1542 1541
1522 1526 1530 1535 1539 1543 1546 1549 1552 1554 1556 1557 1558 1559 1560 1561 1561 1562 1562 1562 1561 1560 1560 1559 1558 1558 1557 1556 1556 1557 1555 1552 1548 1545 1544 1544 1543 1542 1541 1540 1540 1539 1538
1517 1521 1526 1531 1535 1539 1543 1546 1549 1552 1554 1555 1557 1558 1559 1559 1560 1560 1559 1559 1558 1557 1557 1556 1555 1555 1554 1553 1552 1552 1552 1550 1549 1545 1541 1540 1539 1538 1537 1536 1535 1534 1533
1514 1517 1521 1526 1531 1536 1540 1544 1547 1549 1552 1554 1555 1557 1558 1558 1558 1558 1558 1556 1554 1553 1553 1552 1551 1550 1550 1549 1549 1548 1546 1545 1544 1543 1538 1538 1534 1534 1532 1531 1530 1528 1527
1513 1516 1519 1523 1527 1531 1536 1540 1543 1546 1549 1551 1553 1554 1555 1556 1556 1556 1555 1553 1551 1550 1549 1548 1548 1546 1546 1545 1544 1544 1543 1542 1541 1538 1535 1532 1531 1529 1528 1525 1524 1523 1521